This is the latest recevied weather packets stored in our database for station/object NO9B. If no packets are shown the sender has not sent any weather packets the latest 10 day(s).
| Time | Temp. | Humidity | Pressure | Rain* | Wind** | Luminosity | Snow |
|---|---|---|---|---|---|---|---|
| 1787956398 | 28.89° C | 46% | 1020.2 hPa | 0 mm | - | 29 W/m² | - |
| 1787956093 | 28.89° C | 46% | 1020.4 hPa | 0 mm | - | 85 W/m² | - |
| 1787955788 | 30° C | 45% | 1020.1 hPa | 0 mm | - | 112 W/m² | - |
| 1787955491 | 30° C | 47% | 1020.3 hPa | 0 mm | - | 142 W/m² | - |
| 1787955183 | 30° C | 45% | 1020.3 hPa | 0 mm | - | 170 W/m² | - |
| 1787954879 | 29.44° C | 48% | 1020.1 hPa | 0 mm | - | 58 W/m² | - |
| 1787954575 | 30° C | 45% | 1020.3 hPa | 0 mm | - | 165 W/m² | - |
| 1787954274 | 30° C | 47% | 1020.4 hPa | 0 mm | - | 218 W/m² | - |
| 1787953974 | 29.44° C | 47% | 1020.3 hPa | 0 mm | - | 242 W/m² | - |
| 1787953673 | 30° C | 47% | 1020.5 hPa | 0 mm | - | 87 W/m² | - |
| 1787953368 | 30° C | 45% | 1020.5 hPa | 0 mm | - | 273 W/m² | - |
| 1787953066 | 30.56° C | 45% | 1020.5 hPa | 0 mm | - | 286 W/m² | - |
| 1787952766 | 30° C | 45% | 1020.6 hPa | 0 mm | - | 295 W/m² | - |
| 1787952460 | 30° C | 47% | 1020.6 hPa | 0 mm | - | 316 W/m² | - |
| 1787952157 | 30° C | 45% | 1020.4 hPa | 0 mm | - | 324 W/m² | - |
| 1787951855 | 29.44° C | 45% | 1020.5 hPa | 0 mm | - | 334 W/m² | - |
| 1787951551 | 29.44° C | 44% | 1020.5 hPa | 0 mm | - | 353 W/m² | - |
| 1787951247 | 30° C | 43% | 1020.5 hPa | 0 mm | - | 364 W/m² | - |
| 1787950943 | 29.44° C | 51% | 1020.6 hPa | 0 mm | - | 375 W/m² | - |
| 1787950639 | 30° C | 44% | 1020.6 hPa | 0 mm | - | 69 W/m² | - |
| 1787950335 | 30° C | 43% | 1020.3 hPa | 0 mm | - | 93 W/m² | - |
| 1787950030 | 31.11° C | 45% | 1020.7 hPa | 0 mm | - | 409 W/m² | - |
| 1787949726 | 30° C | 45% | 1020.6 hPa | 0 mm | - | 419 W/m² | - |
| 1787949425 | 30° C | 44% | 1020.7 hPa | 0 mm | - | 438 W/m² | - |
| 1787949120 | 29.44° C | 51% | 1020.8 hPa | 0 mm | - | 441 W/m² | - |
* Rain latest hour (hover to see other rain measurements)
** Current wind speed in m/s (hover to see current wind gust speed)